Change the Weather History Date:

Thursday, November 22, 2012

  Actual Average Record
Temperature  
Mean Temperature 57 °F 41 °F  
Max Temperature 68 °F 50 °F 73 °F (1966)
Min Temperature 46 °F 32 °F 15 °F (1964)
Degree Days  
Heating Degree Days 8 24  
Month to date heating degree days 335 420  
Since 1 July heating degree days 725 745  
Cooling Degree Days 0 0  
Month to date cooling degree days 3 0  
Year to date cooling degree days 1831 1349  
Growing Degree Days 7 (Base 50)    
Moisture  
Dew Point 43 °F    
Average Humidity 53    
Maximum Humidity 67    
Minimum Humidity 39    
Precipitation  
Precipitation T in 0.07 in 1.35 in (1963)
Month to date precipitation 1.43 1.92  
Year to date precipitation 24.27 37.83  
Sea Level Pressure  
Sea Level Pressure 29.96 in    
Wind  
Wind Speed 14 mph (SW)    
Max Wind Speed 26 mph    
Max Gust Speed 35 mph    
Visibility 10 miles    
Events Rain    
T = Trace of Precipitation, MM = Missing Value Source: NWS Daily Summary

Daily Weather History Graph

Daily Weather History Graph

Search for Another Location

Airport or City:

Trip Planner

Search our weather history database for the weather conditions in past years. The results will help you decide how hot, cold, wet, or windy it might be!

Date:

Astronomy

Nov. 22, 2012 Rise Set
Actual Time 7:09 AM CST 5:00 PM CST
Civil Twilight 6:40 AM CST 5:29 PM CST
Nautical Twilight 6:08 AM CST 6:02 PM CST
Astronomical Twilight 5:36 AM CST 6:33 PM CST
Moon 1:43 PM CST (11/22) 1:33 AM CST (11/22)
Length of Visible Light 10h 48m
Length of Day
9h 50m
Waxing Gibbous, 71% of the Moon is Illuminated
Nov 22
Waxing Gibbous
Nov 28
Full
Dec 6
Last Quarter
Dec 13
New
Dec 19
First Quarter

Hourly Weather History & Observations

Time (CST) Temp. Windchill Dew Point Humidity Pressure Visibility Wind Dir Wind Speed Gust Speed Precip Events Conditions
12:53 AM 54.0 °F - 37.0 °F 53% 29.95 in 10.0 mi South 12.7 mph - N/A   Clear
1:53 AM 55.0 °F - 37.0 °F 51% 29.94 in 10.0 mi South 15.0 mph 20.7 mph N/A   Mostly Cloudy
2:53 AM 55.9 °F - 39.0 °F 53% 29.91 in 10.0 mi South 16.1 mph - N/A   Overcast
3:53 AM 57.0 °F - 39.9 °F 53% 29.89 in 10.0 mi South 13.8 mph 23.0 mph N/A   Clear
4:53 AM 57.9 °F - 41.0 °F 53% 29.89 in 10.0 mi South 15.0 mph 25.3 mph N/A   Clear
5:53 AM 59.0 °F - 42.1 °F 53% 29.88 in 10.0 mi SSW 12.7 mph 21.9 mph N/A   Clear
6:53 AM 57.9 °F - 43.0 °F 58% 29.88 in 10.0 mi SSW 16.1 mph 23.0 mph N/A   Partly Cloudy
7:53 AM 57.9 °F - 43.0 °F 58% 29.87 in 10.0 mi SSW 17.3 mph 23.0 mph N/A   Clear
8:53 AM 60.1 °F - 45.0 °F 57% 29.88 in 10.0 mi SSW 17.3 mph 25.3 mph N/A   Clear
9:53 AM 61.0 °F - 46.0 °F 58% 29.88 in 10.0 mi SSW 16.1 mph 26.5 mph N/A   Clear
10:53 AM 63.0 °F - 48.0 °F 58% 29.89 in 10.0 mi SSW 11.5 mph 24.2 mph N/A   Clear
11:53 AM 66.9 °F - 48.9 °F 52% 29.87 in 10.0 mi SW 15.0 mph 33.4 mph N/A   Clear
12:53 PM 66.0 °F - 48.9 °F 54% 29.86 in 10.0 mi WSW 20.7 mph 31.1 mph 0.00 in Rain Light Rain
1:02 PM 66.2 °F - 48.2 °F 52% 29.87 in 10.0 mi SW 16.1 mph 32.2 mph 0.00 in   Scattered Clouds
1:53 PM 64.0 °F - 48.9 °F 58% 29.86 in 10.0 mi SW 12.7 mph 20.7 mph 0.00 in   Overcast
2:53 PM 62.1 °F - 50.0 °F 65% 29.87 in 10.0 mi SSW 10.4 mph - 0.00 in   Mostly Cloudy
3:53 PM 63.0 °F - 51.1 °F 65% 29.90 in 10.0 mi SW 5.8 mph - N/A   Clear
4:53 PM 62.1 °F - 48.9 °F 62% 29.93 in 10.0 mi SW 5.8 mph - N/A   Clear
5:25 PM 60.8 °F - 48.2 °F 63% 29.98 in 10.0 mi NW 10.4 mph - N/A   Partly Cloudy
5:53 PM 62.1 °F - 37.9 °F 41% 30.00 in 10.0 mi NNW 13.8 mph 28.8 mph N/A   Clear
6:53 PM 57.0 °F - 37.9 °F 49% 30.08 in 10.0 mi North 13.8 mph 25.3 mph N/A   Clear
7:53 PM 55.0 °F - 37.9 °F 53% 30.12 in 10.0 mi North 15.0 mph 24.2 mph N/A   Clear
8:53 PM 52.0 °F - 36.0 °F 54% 30.17 in 10.0 mi NNW 15.0 mph 26.5 mph N/A   Clear
9:53 PM 50.0 °F - 34.0 °F 54% 30.20 in 10.0 mi North 11.5 mph 21.9 mph N/A   Clear
10:53 PM 48.0 °F - 35.1 °F 61% 30.22 in 10.0 mi North 10.4 mph - N/A   Clear
11:53 PM 46.0 °F 41.0 °F 35.1 °F 66% 30.23 in 10.0 mi NNW 10.4 mph - N/A   Clear